THOR BURNER 2A R/B

Satellite information

Favourite Embed

Satellite Type and Status

ROCKET BODYIN ORBIT

Key statistics

Satellite THOR BURNER 2A R/B at a glance.

Uptime

18656

Days in orbit

Revolutions

≈ 14.2

Per day

Orbit

SSO

Sun Synchronous Orbit

Inclination

98.6

Latest

Satellite identification and parameters

Extended collection of information and parameters for THOR BURNER 2A R/B.

Object identification

Identified? True

Debris? False

Object name: THOR BURNER 2A R/B

International designator: 1974-063B

Object number (NORAD): 7412

Object ID (CCSDS): 7412

Country: UNITED STATES OF AMERICA (US)

Current information (Y/N): Y

RCS size: LARGE

Orbital parameters

Period: 101.149 minutes

Inclination: 98.6094 deg

SMA: 7191.195 km

Apoapsis: 846.201 km

Periapsis: 779.919 km

RAAN: 91.0055 deg

Eccentricy: 0.00460855

Argument of periapsis: 76.6838 deg

Mean anomaly: 283.9474 deg

Mean motion: 14.23643121 rev/day

Mean motion (dot): 0.00000182 rev/day2

B* drag term: 0.000097326113 1/REarth

Two-line elements (TLE)

Creation date: Sept. 6, 2025, 2:09 a.m.

Reference frame: TEME

Reference center: EARTH

Epoch: Sept. 5, 2025, 7:40 p.m. UTC

TLE line 0: 0 THOR BURNER 2A R/B

TLE line 1: 1 07412U 74063B 25248.81962586 .00000182 00000-0 97326-4 0 9992

TLE line 2: 2 07412 98.6094 91.0055 0046086 76.6838 283.9474 14.23643121648613

Live tracking on map

Real-time ground track for satellite THOR BURNER 2A R/B.

In-orbit conjunctions

A list of the most updated potential collisions computed for object THOR BURNER 2A R/B.

Target Orbit TCA Probability of collision Miss distance Type
IRIDIUM 33 DEB LEO 2025-06-03 15:34:18 0.0001103476 338.0 (m) DEBRIS
FENGYUN 1C DEB SSO 2025-01-19 03:38:37 0.0001708571 263.0 (m) DEBRIS
DMSP 5D-2 F13 DEB SSO 2024-10-23 20:55:54 0.0001174743 290.0 (m) DEBRIS
CZ-6A DEB SSO 2024-10-14 06:30:57 0.0001819322 415.0 (m) DEBRIS
CZ-6A DEB SSO 2024-09-25 06:56:06 0.0001321569 642.0 (m) DEBRIS

Associated space launch

Military meteorological satellite

THOR BURNER 2A R/B was lifted into orbit during the mission ‘Thor Burner 2A | DMSP-5C F1’, on board a Thor Burner 2A space rocket.

The launch took place on Aug. 9, 1974, 3:22 a.m. from Space Launch Complex 10W.

For more information about the launch, click the button.

Launch to space Thor Burner 2A | DMSP-5C F1
Thor Burner 2A | DMSP-5C F1

Agency: N/A

Status: Launch Successful

Launch date: Aug. 9, 1974, 3:22 a.m. UTC

Rocket: Thor Burner 2A

Launch pad: Space Launch Complex 10W

Location: Vandenberg SFB, CA, USA

...

Latest news about this satellite

There are no fresh news available about this satellite. Check back as we update our databases every day.


Newsletter sign-up

Weekly statistics, charts and insights to help you stay on top of the space industry.